Aérodrome :
LOGIN :

S'inscrire | Disclaimer

   EN    FR    IT 

 










Légende :    VFR   VFR Marginal   IFR   IFR Intensif   IFR Très Intensif
Visi : 
Plafond : 
>= 8 km
>= 3000ft
5 à 8 km
1000 à 3000 ft
1500m à 5 km
500 à 1000 ft
800 à 1500m
200 à 500 ft
< 800m
< 200 ft
Symboles :   Orages  Brouillard  Fortes neiges  Fortes précipitations  Vent > 20 kt
SIGMETs :   Divers  Orages  Givrage  Turbulence  Onde Orograph.  Cendres Volcan.







- Altitude de l'aérodrome : 231 ft
- Code IATA : WTN


EGXW - RAF Waddington

DERNIER METAR :
  • 151150Z 32015G26KT 9999 FEW028 SCT040 04/01 Q0999 BLU NOSIG

METARs EXPIRÉS :
  • 151050Z 32016KT 9999 FEW010 SCT028 03/01 Q0998 BLU NOSIG
  • 150950Z 32014KT 9999 FEW020 02/01 Q0996 BLU NOSIG
  • 150850Z 32015KT 9999 FEW020 02/00 Q0995 BLU NOSIG

TAF TAF EGXW
Valide du 15 à 12h jusqu'au 16 à 06h UTC


151030Z 1512/1606 33016KT 9999 SCT025
PROB30
TEMPO 1512/1519 33018G28KT 6000 SHRA BKN016
BECMG 1523/1602 30010KT
Pas de NOTAMs connus pour ce terrain.



MET'MAP, la Météo Aéronautique d'un coup d'oeil ! - Copyright ORBIFLY Décembre 2007 - Disclaimer

ORBIFLY MET'MAP TEAM :

Programmation & Développement : Alexandra Zaïnal
Conception & Développement : Baudouin d'Aumeries
Co-Programmation & Développement : Marc-Olivier Méhu
Soutien technique & logistique : Manuel Goepfert

Contact : metmap@orbifly.com




SOURCES & CREDITS :

   NOAA